sat.trackr.live / text

‹ back to catalog

FLOCK 4Q-29

NORAD 58304 · 2023-174BA

PAYLOAD ACTIVE UNKNOWN

§ Identity

Operator
Country
US
Launch date
2023-11-11
Launch site
AFWTR
Launch vehicle
Mass (kg)
RCS (m²)

Purposes: earth_obs

External: N2YO · Heavens-Above · Gunter

§ Orbital elements

Epoch: 2026-05-25T04:22:45.592032Z

Period
92.66 min
Inclination
97.3926°
Eccentricity
0.0005665
Mean motion
15.54045089 rev/d
Perigee alt
401.1 km
Apogee alt
408.8 km
Semi-major
6,783.1 km
B*
4.7834e-4
RAAN
236.1516°
Arg perigee
201.9446°
Mean anomaly
158.1566°
Rev number
14,218

§ Raw data

FLOCK 4Q-291 58304U 23174BA  26145.18247213  .00030966  00000+0  47834-3 0  99952 58304  97.3926 236.1516 0005665 201.9446 158.1566 15.54045089142189

JSON: /api/v1/satellites/58304 · /tle

For live sub-satellite position, see the globe view (requires WebGL).

§ Visibility from observer

Set your observer location to see the next 7 days of passes ≥ 10°. The values pass through the URL so the page stays shareable.

No JS? Fill the form by hand. The geolocation button needs JavaScript.